Home   Weather   Sheffield   Past weeks
Flag for United Kingdom

Past Weather in Sheffield, England, United Kingdom — Yesterday and Last 2 Weeks

Now
48 °F

Cool.


Feels Like: 46 °F
Forecast: 54 / 41 °F
Wind: 6 mph from Southwest

Location: Manchester Airport

Current Time: Oct 22, 2019 at 12:18:06 pm

Latest Report: Oct 22, 2019 at 11:50 am


Visibility: N/A

Pressure: 30.18 "Hg

Humidity: 82%

Dew Point: 43 °F

Location of SheffieldLocation

Past Weather in Sheffield — Graph

°F

Sheffield Temperature Yesterday

Maximum temperature yesterday: 52 °F (at 12:20 pm)
Minimum temperature yesterday: 39 °F (at 11:20 pm)
Average temperature yesterday: 49 °F

High & Low Weather Summary for the Past Weeks

 TemperatureHumidityPressure
High59 °F (Oct 8, 12:50 pm)100% (Oct 11, 11:20 am)30.21 "Hg (Oct 11, 11:20 am)
Low39 °F (Oct 21, 11:20 pm)55% (Oct 8, 2:20 pm)29.33 "Hg (Oct 18, 6:50 pm)
Average51 °F86%29.67 "Hg
* Reported Oct 7 10:20 am — Oct 22 10:50 am, Sheffield. Weather by CustomWeather, © 2019

Note: Actual official high and low records may vary slightly from our data, if they occured in-between our weather recording intervals... More about our weather records

Advertising

Sheffield Weather History for the Previous 24 Hours

Scroll right to see more
 ConditionsComfort  
Time TempWeatherWind HumidityBarometerVisibility
10:50 am
Tue, Oct 22
46 °FCool.6 mph87%30.18 "HgN/A
10:20 am46 °FCool.5 mph87%30.18 "HgN/A
9:50 am45 °FQuite cool.3 mph87%30.18 "HgN/A
9:20 am43 °FQuite cool.5 mph93%30.18 "HgN/A
8:50 am43 °FPartly sunny.3 mph93%30.18 "HgN/A
8:20 am43 °FOvercast.3 mph87%30.18 "HgN/A
7:50 am43 °FPartly sunny.5 mph87%30.18 "HgN/A
7:20 am41 °FPassing clouds.5 mph93%30.18 "HgN/A
6:50 am41 °FQuite cool.5 mph93%30.15 "HgN/A
6:20 am41 °FQuite cool.3 mph93%30.15 "HgN/A
5:50 am41 °FPassing clouds.5 mph93%30.15 "HgN/A
5:20 am41 °FPassing clouds.3 mph93%30.15 "HgN/A
4:50 am43 °FOvercast.5 mph93%30.18 "HgN/A
4:20 am43 °FOvercast.5 mph93%30.18 "HgN/A
3:50 am43 °FOvercast.3 mph93%30.18 "HgN/A
3:20 am43 °FOvercast.5 mph93%30.18 "HgN/A
2:50 am41 °FPassing clouds.5 mph93%30.18 "HgN/A
2:20 am41 °FQuite cool.5 mph93%30.18 "HgN/A
1:50 am41 °FPassing clouds.3 mph100%30.18 "HgN/A
1:20 am41 °FOvercast.3 mph93%30.21 "HgN/A
12:50 am39 °FPassing clouds.5 mph100%30.21 "HgN/A
12:20 am39 °FPassing clouds.3 mph93%30.21 "HgN/A
11:50 pm
Mon, Oct 21
39 °FPassing clouds.3 mph93%30.21 "HgN/A
11:20 pm39 °FChilly.3 mph93%30.21 "HgN/A
10:50 pm41 °FQuite cool.2 mph93%30.21 "HgN/A
10:20 pm45 °FQuite cool.1 mph87%30.21 "HgN/A
9:50 pm46 °FCool.2 mph82%30.21 "HgN/A
9:20 pm46 °FPassing clouds.5 mph82%30.21 "HgN/A
8:50 pm48 °FPassing clouds.5 mph76%30.21 "HgN/A
8:20 pm48 °FPassing clouds.5 mph76%30.21 "HgN/A
7:50 pm50 °FPassing clouds.6 mph71%30.21 "HgN/A
7:20 pm50 °FPassing clouds.5 mph76%30.18 "HgN/A
6:50 pm50 °FPassing clouds.5 mph82%30.18 "HgN/A
6:20 pm52 °FPassing clouds.3 mph77%30.18 "HgN/A
5:50 pm52 °FOvercast.5 mph77%30.18 "HgN/A
5:20 pm52 °FOvercast.1 mph72%30.18 "HgN/A
4:50 pm52 °FPartly sunny.3 mph72%30.18 "HgN/A
4:20 pm52 °FPartly sunny.3 mph72%30.18 "HgN/A
3:50 pm52 °FPartly sunny.3 mph72%30.18 "HgN/A
3:20 pm52 °FPartly sunny.3 mph77%30.18 "HgN/A
2:50 pm52 °FPartly sunny.8 mph72%30.18 "HgN/A
2:20 pm52 °FMore clouds than sun.9 mph72%30.18 "HgN/A
1:50 pm52 °FMore clouds than sun.8 mph77%30.21 "HgN/A
1:20 pm52 °FPartly sunny.8 mph77%30.21 "HgN/A
12:50 pm52 °FMostly cloudy.9 mph72%30.21 "HgN/A
12:20 pm52 °FCloudy.9 mph72%30.21 "HgN/A
Weather by CustomWeather, © 2019

See weather overview